Location: *
(45.9500°N, 9.0833°E)
Time: 21:13:34
(UTC+00:00)

Tiros 1 - Pass Details

Date: 19 June 2021
Orbit: 630 x 664 km, 48.4° (Epoch: 05 August)

Event Time Altitude Azimuth Distance (km) Brightness Sun altitude
Rises 15:53:35 0° 288° (WNW) 2,961 11.6 32.3°
Reaches altitude 10° 15:56:09 10° 277° (W) 2,054 11.3 31.8°
Maximum altitude 16:00:11 28° 218° (SW) 1,216 9.3 31.1°
Drops below altitude 10° 16:04:15 10° 159° (SSE) 2,062 9.6 30.4°
Sets 16:06:50 0° 148° (SSE) 2,975 10.3 30.0°
